Regional Weather Roundup
Issued by NWS Goodland, KS

Home | Current Version | Previous Version | Graphics & Text | Print | Product List | Glossary On
Versions: 1 2 3 4 5 6 7 8 9 10 11 12 13 14 15 16 17 18 19 20 21 22 23 24 25 26 27 28 29 30 31 32 33 34 35 36 37 38 39 40 41 42 43 44 45 46 47 48 49 50
000
ASUS43 KGLD 182108
RWRGLD

GOODLAND FORECAST AREA HOURLY WEATHER ROUNDUP
NATIONAL WEATHER SERVICE GOODLAND KS
300 PM MDT THU SEP 18 2014

...OFFICIAL OBSERVATIONS...

CITY           SKY/WX    TMP DP  RH WIND       PRES   REMARKS
GOODLAND KS    SUNNY     83  60  45 S10       29.94F
HILL CITY KS   SUNNY     74  65  73 W3        29.91F
IMPERIAL NEB   CLOUDY    71  62  73 SE13      29.94F
MCCOOK NEB     CLOUDY    67  64  90 SE7       29.95F FOG
AKRON CO       SUNNY     87  47  24 E9        29.96F
BURLINGTON CO  SUNNY     89  47  23 SE12      29.94F
LIMON CO       SUNNY     88  32  13 SE13G21   30.00F
$$

...UNOFFICIAL OBSERVATIONS...

CITY           SKY/WX    TMP DP  RH WIND       PRES   REMARKS
COLBY KS       SUNNY     79  68  69 E8        29.94F
GOVE KS          N/A     84  32  15 MISG        N/A
NORTON KS      CLOUDY    70  63  78 SE5       29.92
SHARON SPRINGS   N/A     92  47  21 S9          N/A
TRIBUNE KS     SUNNY     93  57  29 SW15G21   29.93F
WAKEENEY KS      N/A     85  60  42 MISG        N/A
TRENTON NEB      N/A     68  32  26 SE10        N/A
YUMA CO          N/A     84  56  37 SE6         N/A
$$



USA.gov is the U.S. government's official web portal to all federal, state and local government web resources and services.